#timestamp,LO_Frequency,Hit 
1501992015.4,286047002.4,N
1501992035.2,286047001.8,N
1501992055.0,286047002.8,N
1501992056.0,286047002.8,N
1501992075.8,286047001.8,N
1501992095.6,286046999.7,N
1501992115.4,286046999.8,N
1501992135.3,286047001.6,N
1501992155.1,286047002.3,N
1501992175.8,286047001.8,N
1501992195.7,286047003.1,N
1501992215.5,286047002.9,N
1501992235.3,286047002.9,N
1501992255.2,286047003.7,N
1501992275.9,286047001.3,N
1501992295.7,286047003.4,N
1501992315.6,286047005.4,N
1501992335.4,286047005.4,N
1501992355.2,286047005.3,N
1501992375.0,286047006.0,N
1501992376.0,286047006.0,N
1501992395.8,286047003.0,N
1501992415.6,286047003.1,N
1501992435.4,286047004.7,N
1501992455.3,286047005.2,N
1501992475.1,286047005.3,N
1501992495.8,286047005.0,N
1501992515.7,286047004.7,N
1501992535.5,286047005.4,N
1501992555.3,286047005.7,N
1501992575.2,286047004.5,N
1501992595.9,286047007.3,N
1501992615.7,286047007.1,N
1501992635.6,286047004.7,N
1501992655.4,286047008.9,N
1501992675.2,286047007.5,N
1501992695.0,286047005.7,N
1501992696.0,286047005.7,N
1501992715.8,286047007.6,N
1501992735.6,286047007.4,N
1501992755.4,286047007.1,N
1501992775.3,286047005.2,N
1501992795.1,286047005.1,N
1501992815.8,286047006.3,N
1501992835.7,286047006.2,N
1501992855.5,286047007.4,N
1501992875.3,286047007.1,N
1501992895.2,286047006.2,N
1501992915.9,286047004.6,N
1501992935.7,286047005.6,N
1501992955.6,286047005.1,N
1501992975.4,286047005.8,N
1501992995.2,286047004.5,N
1501993015.1,286047007.0,N
1501993016.0,286047007.0,N
1501993035.8,286047005.5,N
1501993055.6,286047005.4,N
1501993075.4,286047003.9,N
1501993095.3,286047004.2,N
1501993115.1,286047003.6,N
1501993135.8,286047003.0,N
1501993155.7,286047005.4,N
1501993175.5,286047007.5,N
1501993195.3,286047005.2,N
1501993215.2,286047004.6,N
1501993235.9,286047005.1,N
1501993255.7,286047004.9,N
1501993275.6,286047007.5,N
1501993295.4,286047007.0,N
1501993315.2,286047006.7,N
1501993335.1,286047008.3,N
1501993336.0,286047008.3,N
1501993355.8,286047006.4,N
1501993375.6,286047008.0,N
1501993395.4,286047008.4,N
1501993415.3,286047010.2,N
1501993435.1,286047010.7,N
1501993455.8,286047010.3,N
1501993475.7,286047008.2,N
1501993495.5,286047009.8,N
1501993515.3,286047009.8,N
1501993535.2,286047007.8,N
1501993555.9,286047012.4,N
1501993575.7,286047011.1,N
1501993595.6,286047011.1,N
1501993615.4,286047011.4,N
1501993635.2,286047011.9,N
1501993655.0,286047013.3,N
1501993656.0,286047013.3,N
1501993675.8,286047013.5,N
1501993695.6,286047011.1,N
1501993715.4,286047011.0,N
1501993735.3,286047011.2,N
1501993755.1,286047012.1,N
1501993775.8,286047013.9,N
1501993795.7,286047008.1,N
1501993815.5,286047012.0,N
1501993835.3,286047009.9,N
1501993855.2,286047010.5,N
1501993875.9,286047010.5,N
1501993895.7,286047007.8,N
1501993915.6,286047010.8,N
1501993935.4,286047009.3,N
1501993955.2,286047012.0,N
1501993975.0,286047007.7,N
1501993975.9,286047007.7,N
1501993995.8,286047010.1,N
1501994015.6,286047008.8,N
1501994035.4,286047010.5,N
1501994055.3,286047008.3,N
1501994075.1,286047010.7,N
1501994095.8,286047010.3,N
1501994115.7,286047010.6,N
1501994135.5,286047011.9,N
1501994155.3,286047009.7,N
1501994175.2,286047011.4,N
1501994195.9,286047013.1,N
1501994215.7,286047015.5,N
1501994235.6,286047013.4,N
1501994255.4,286047013.9,N
1501994275.2,286047011.4,N
1501994295.0,286047015.1,N
1501994295.9,286047015.1,N
1501994315.8,286047016.5,N
1501994335.6,286047012.7,N
1501994355.4,286047013.2,N
1501994375.3,286047015.1,N
1501994395.1,286047012.9,N
1501994415.8,286047016.7,N
1501994435.7,286047014.6,N
1501994455.5,286047017.0,N
1501994475.3,286047016.6,N
1501994495.2,286047015.8,N
1501994515.9,286047016.5,N
1501994535.7,286047018.7,N
1501994555.6,286047016.6,N
1501994575.4,286047018.5,N
1501994595.2,286047014.6,N
1501994615.0,286047014.1,N
1501994616.0,286047014.1,N
1501994635.8,286047014.1,N
1501994655.6,286047013.2,N
1501994675.4,286047015.5,N
1501994695.3,286047017.0,N
1501994715.1,286047014.2,N
1501994735.8,286047015.5,N
1501994755.7,286047015.3,N
1501994775.5,286047014.9,N
1501994795.3,286047017.0,N
1501994815.2,286047016.7,N
1501994835.9,286047012.9,N
1501994855.7,286047015.4,N
1501994875.6,286047015.4,N
1501994895.4,286047015.2,N
1501994915.2,286047014.8,N
1501994935.1,286047015.3,N
1501994936.0,286047015.3,N
1501994955.8,286047013.2,N
1501994975.6,286047012.9,N
1501994995.4,286047015.1,N
1501995015.3,286047015.3,N
1501995035.1,286047016.7,N
1501995055.8,286047015.5,N
1501995075.7,286047014.3,N
1501995095.5,286047016.5,N
1501995115.3,286047017.1,N
1501995135.2,286047012.9,N
1501995155.9,286047014.3,N
1501995175.7,286047016.8,N
1501995195.6,286047016.0,N
1501995215.4,286047016.7,N
1501995235.2,286047018.8,N
1501995255.1,286047018.1,N
1501995256.0,286047018.1,N
1501995275.8,286047019.0,N
1501995295.6,286047017.8,N
1501995315.5,286047020.4,N
1501995335.3,286047019.7,N
1501995355.1,286047018.5,N
1501995375.8,286047016.8,N
1501995395.7,286047014.4,N
1501995415.5,286047016.1,N
1501995435.3,286047016.5,N
1501995455.2,286047017.0,N
1501995475.9,286047017.7,N
1501995495.7,286047016.4,N
1501995515.6,286047014.8,N
1501995535.4,286047014.7,N
1501995555.2,286047015.5,N
1501995575.1,286047016.0,N
1501995576.0,286047016.0,N
1501995595.8,286047014.5,N
